Regional Weather Roundup
Issued by NWS

Home | Current Version | Previous Version | Graphics & Text | Print | Product List | Glossary On
Versions: 1 2 3 4 5 6 7 8 9 10 11 12 13 14 15 16 17 18 19 20 21 22 23 24 25 26 27 28 29 30 31 32 33 34 35 36 37 38 39 40 41 42 43 44 45 46 47 48 49 50
000
ASUS45 KBOU 010707
RWRCO

WEATHER ROUNDUP FOR COLORADO
NATIONAL WEATHER SERVICE DENVER/BOULDER CO
100 AM MDT MON JUN 01 2015

NOTE: "FAIR" INDICATES FEW OR NO CLOUDS BELOW 12000 FEET WITH NO
SIGNIFICANT WEATHER AND/OR OBSTRUCTIONS TO VISIBILITY.

COZ001>005-013-030-031-010800-
...NORTHWEST COLORADO...

CITY           SKY/WX    TMP DP  RH WIND       PRES   REMARKS
CRAIG          PTCLDY    50  43  77 E5        30.18F
HAYDEN         PTCLDY    52  41  66 E6        30.21F
MEEKER         MOCLDY    59  43  55 NE13G23   30.19F
MOUNT WERNER   NOT AVBL
STEAMBOAT SPGS CLEAR     50  40  69 E10       30.24S
WALDEN         CLEAR     43  32  65 SE8       30.29F
$$

COZ006>008-011-010800-
...WEST CENTRAL VALLEYS...

CITY           SKY/WX    TMP DP  RH WIND       PRES   REMARKS
GRAND JUNCTION PTCLDY    65  44  46 SE9       30.07S
MONTROSE       PTCLDY    63  41  44 SE8       30.17S
EAGLE          PTCLDY    63  52  67 CALM      30.27S
RIFLE          MOCLDY    60  49  66 SE14      30.15F
DELTA          PTCLDY    65  44  45 NE9       30.13S
NUCLA          PTCLDY    63  37  39 E13       30.17S
$$

COZ017>023-064>068-010800-
...SOUTHWEST COLORADO...

CITY           SKY/WX    TMP DP  RH WIND       PRES   REMARKS
DURANGO        PTCLDY    52  40  63 N6        30.21F
CORTEZ         CLEAR     51  42  71 CALM      30.15S
PAGOSA SPRINGS PTCLDY    51  39  63 CALM      30.30F
TELLURIDE      PTCLDY    49  36  59 SE7       30.41S
WOLF CREEK PAS NOT AVBL
$$

COZ009-010-012-014-032>034-037-058>063-010800-
...CENTRAL COLORADO...

CITY           SKY/WX    TMP DP  RH WIND       PRES   REMARKS
ASPEN          PTCLDY    52  37  56 SW7       30.30F
BUENA VISTA    PTCLDY    51  38  60 NW7       30.32F
COPPER MTN     PTCLDY    45  28  53 W8        30.56F
BERTHOUD PASS  FAIR      37  32  81 W17G25    30.58F
COTTONWOOD PAS NOT AVBL
GUNNISON       PTCLDY    50  39  66 N6        30.35F
KREMMLING      CLEAR     45  39  81 SE5       30.31S
LEADVILLE      PTCLDY    38  32  79 E6        30.43F
SALIDA         PTCLDY    55  40  55 W8        30.37S
SUNLIGHT       MOCLDY    50  34  53 CALM      30.52F
WILKERSON PASS PTCLDY    45  30  57 W8        30.53F
$$

COZ069>075-010800-
...SAN LUIS VALLEY/SANGRE DE CRISTO MOUNTAINS...

CITY           SKY/WX    TMP DP  RH WIND       PRES   REMARKS
ALAMOSA        PTCLDY    50  40  68 CALM      30.29F
LA VETA PASS   CLEAR    N/A N/A N/A MISG      30.45F
SAGUACHE       PTCLDY    54  39  58 N5        30.31F
$$

COZ035-036-038>040-010800-
...NORTHERN COLORADO FRONT RANGE...

CITY           SKY/WX    TMP DP  RH WIND       PRES   REMARKS
DENVER INTL AP MOCLDY    57  49  74 S10       30.11F
DMNS CITY PARK   N/A     60  51  70 S5        30.11F
AURORA         NOT AVBL
FRONT RANGE AP PTCLDY    61  50  67 MISG      30.12S
ERIE MUNI ARPT PTCLDY    58  53  85 SE5       30.09F
BOULDER MUN AP PTCLDY    64  39  39 SW7       30.10F
CENTENNIAL     MOCLDY    59  48  67 S12       30.14F
BROOMFIELD     PTCLDY    59  50  72 W7        30.12F
FORT COLLINS   CLEAR     57  52  82 S5        30.10F
LONGMONT       CLEAR     56  51  84 CALM      30.11F
$$

COZ041-046-047-076>085-087-088-010800-
...PIKES PEAK/PALMER DIVIDE AND SOUTHERN FOOTHILLS...

CITY           SKY/WX    TMP DP  RH WIND       PRES   REMARKS
COLO. SPRINGS  PTCLDY    53  47  79 N9        30.20S
A. F. ACADEMY  CLEAR     50  46  87 N6        30.22R
ELLICOTT       CLEAR    N/A N/A N/A E8        30.19F
FALCON         CLEAR     53  45  74 N9        30.24F
FORT CARSON    NOT AVBL
LIMON          PTCLDY    56  52  86 SE6       30.13F
MONUMENT HILL  CLEAR     50  45  81 MISG      30.24F
TRINIDAD       PTCLDY    56  49  77 SW10      30.16F
$$

COZ042>045-048>051-090-091-010800-
...NORTHEAST COLORADO...

CITY           SKY/WX    TMP DP  RH WIND       PRES   REMARKS
GREELEY ARPT   CLEAR     54  52  94 CALM      30.08F
AKRON          PTCLDY    56  51  84 SW7       30.07F
BURLINGTON     PTCLDY    60  51  72 SE10      30.07S
WRAY           CLEAR    N/A N/A N/A CALM      30.03F
STERLING       PTCLDY    55  55 100 CALM      30.04S
HOLYOKE        CLEAR     59  55  88 E5        30.04F
FORT MORGAN    PTCLDY    57  -5   8 NW3       30.07F
$$

COZ086-089-092>099-010800-
...SOUTHEAST COLORADO...

CITY           SKY/WX    TMP DP  RH WIND       PRES   REMARKS
PUEBLO         CLEAR     58  52  80 NE7       30.10S
LA JUNTA       CLEAR     60  53  77 N8        30.09R
LAMAR          CLOUDY    59  54  83 W6        30.05R
SPRINGFIELD      N/A     59  57  93 S10       30.10F
$$



USA.gov is the U.S. government's official web portal to all federal, state and local government web resources and services.